[[{"header":{"parameterUnit":"m.s-1","parameterCategory":1,"la1":30.2991,"la2":30.254,"lo1":-89.0895,"lo2":-89.0444,"dy":0.0017,"dx":0.0017,"nx":28,"ny":28,"refTime":"2024-12-08T09:00:00:Z","depth":0,"parameterNumber":2,"parameterNumberName":"U-component_of_WINDS"},"data":[0,0,0,0,0,0,0,0,0,0,0,0,0,0,0,0,0,0,0,0,0,0,0,0,0,0,0,0,0,0,0,0,0,0,0,0,0,0,0,0,0,0,0,0,0,0,0,0,0,0,0,0,0,0,0,0,0,0,-4.1661,-4.1661,0,-4.1674,-4.1675,-4.1675,-4.1568,-4.1565,-4.1562,-4.156,-4.1573,-4.1576,-4.158,0,0,0,0,0,0,0,0,0,0,0,0,0,-4.1542,-4.1544,-4.1661,-4.1661,-4.1661,-4.1674,-4.1675,-4.1675,-4.1569,-4.1565,-4.1562,-4.1558,-4.1572,-4.1576,-4.158,0,0,0,0,0,0,0,0,0,0,0,0,0,-4.1578,-4.1545,-4.1661,-4.161,-4.1605,-4.1674,-4.1675,-4.1675,-4.157,-4.1565,-4.1561,-4.1557,-4.1571,-4.1576,-4.158,-4.1699,0,0,-4.1595,-4.1597,0,0,0,0,0,0,0,0,-4.1576,-4.1583,-4.1617,-4.1613,-4.1609,-4.1615,-4.1637,-4.1683,-4.1571,-4.1583,-4.156,-4.1554,-4.1591,-4.1594,-4.1606,-4.1699,-4.17,-4.1595,-4.1598,-4.16,-4.1601,0,0,0,0,0,0,0,-4.1574,-4.1582,-4.1666,-4.1618,-4.1613,-4.1586,-4.1586,-4.1646,-4.1612,-4.1582,-4.1574,-4.1577,-4.1588,-4.1602,-4.1606,-4.17,-4.1595,-4.1599,-4.1602,-4.1604,-4.1888,-4.1893,0,0,0,0,0,0,-4.1578,-4.158,-4.1665,-4.1666,-4.1581,-4.1592,-4.1592,-4.1618,-4.1611,-4.1606,-4.1581,-4.1572,-4.1596,-4.16,-4.1606,-4.1741,-4.16,-4.1604,-4.1607,-4.1884,-4.1889,-4.1895,0,0,0,0,0,0,-4.1576,-4.1587,-4.1665,-4.1621,-4.1629,-4.1599,-4.1628,-4.162,-4.1634,-4.161,-4.1604,-4.1602,-4.1593,-4.1599,-4.1676,-4.174,-4.1606,-4.1611,-4.1878,-4.1885,-4.1892,-4.2015,0,0,0,0,0,0,-4.1573,-4.1587,-4.1632,-4.1623,-4.1632,-4.1735,-4.1632,-4.1624,-4.1642,-4.1631,-4.1628,-4.1623,-4.159,-4.1669,-4.168,-4.1744,-4.1614,-4.1872,-4.1881,-4.189,-4.2005,-4.2025,-4.2043,0,0,0,0,0,-4.1569,-4.1666,-4.1634,-4.1645,-4.1687,-4.1739,-4.1744,-4.1704,-4.1648,-4.1692,-4.1677,-4.1623,-4.1732,-4.1678,-4.169,-4.1756,-4.1868,-4.1879,-4.1889,-4.1996,-4.2021,-4.2042,0,0,0,0,0,0,-4.1683,-4.1664,-4.1629,-4.1726,-4.1735,-4.1721,-4.1776,-4.1732,-4.1757,-4.1745,-4.1694,-4.1694,-4.1779,-4.1776,-4.1716,-4.1869,-4.179,-4.1804,-4.1867,-4.1891,-4.191,-4.1907,-4.1618,0,0,0,0,0,-4.1719,-4.1763,-4.1745,-4.1832,-4.1838,-4.1807,-4.1828,-4.1796,-4.1804,-4.1807,-4.1797,-4.1806,-4.1842,-4.1867,-4.1899,-4.2005,-4.2001,-4.2056,-4.2075,-4.2091,-4.2102,-4.2155,-4.2179,-4.193,-4.1929,-4.1929,0,0,-4.1795,-4.179,-4.1821,-4.1854,-4.1858,-4.1904,-4.1811,-4.1864,-4.1897,-4.1815,-4.1885,-4.188,-4.1886,-4.1978,-4.2017,-4.1977,-4.2171,-4.2104,-4.2117,-4.212,-4.2169,-4.2192,-4.2213,-4.1937,-4.1935,-4.1934,0,0,-4.1954,-4.1957,-4.2028,-4.2033,-4.204,-4.2018,-4.2036,-4.2029,-4.2021,-4.2092,-4.2031,-4.207,-4.2134,-4.214,-4.2152,-4.2316,-4.2266,-4.2328,-4.2425,-4.2478,-4.2497,-4.2514,-4.257,-4.2591,-4.234,-4.234,-4.234,0,-4.2047,-4.2114,-4.207,-4.2127,-4.2143,-4.2072,-4.2143,-4.215,-4.2167,-4.2179,-4.2135,-4.2212,-4.2212,-4.2302,-4.2342,-4.2355,-4.2372,-4.2326,-4.2498,-4.2515,-4.253,-4.2582,-4.2604,-4.2347,-4.2346,-4.2346,-4.2345,0,-4.2225,-4.2273,-4.233,-4.2348,-4.237,-4.2435,-4.24,-4.2429,-4.2396,-4.2379,-4.2451,-4.2448,-4.2477,-4.2498,-4.2466,-4.2584,-4.2558,-4.2507,-4.2426,-4.2562,-4.261,-4.263,-4.2358,-4.2355,-4.2353,-4.2351,0,0,-4.2454,-4.2448,-4.2469,-4.2475,-4.2478,-4.2513,-4.2574,-4.2603,-4.2627,-4.2642,-4.2689,-4.2746,-4.2698,-4.2711,-4.268,-4.2727,-4.2853,-4.267,-4.2669,-4.2701,-4.2979,-4.3015,-4.3039,-4.2822,-4.2825,-4.2828,-4.2977,0,-4.2608,-4.271,-4.2673,-4.2778,-4.282,-4.2753,-4.2806,-4.2813,-4.2799,-4.2833,-4.2818,-4.2857,-4.2793,-4.28,-4.2844,-4.2828,-4.2907,-4.2818,-4.2864,-4.2866,-4.286,-4.3064,-4.3102,-4.3243,-4.2996,-4.2999,-4.3002,0,-4.2799,-4.2821,-4.293,-4.2923,-4.294,-4.2988,-4.301,-4.3044,-4.305,-4.3037,-4.3053,-4.3011,-4.3069,-4.2992,-4.307,-4.301,-4.3027,-4.3023,-4.3027,-4.3027,-4.2939,-4.3066,-4.3287,-4.3307,-4.3031,-4.3029,-4.3027,0,-4.2951,-4.3008,-4.3079,-4.3087,-4.3083,-4.3118,-4.3118,-4.312,-4.3139,-4.3159,-4.3171,-4.3198,-4.3212,-4.3234,-4.3201,-4.3148,-4.3284,-4.3203,-4.3272,-4.3273,-4.33,-4.3298,-4.3524,-4.3318,-4.3318,-4.3318,-4.3317,0,-4.3123,-4.3192,-4.3147,-4.3191,-4.3265,-4.3223,-4.3297,-4.329,-4.3292,-4.3333,-4.3279,-4.3318,-4.3273,-4.3308,-4.3283,-4.335,-4.3358,-4.3347,-4.3339,-4.335,-4.3351,-4.3358,-4.3345,-4.3323,-4.3322,-4.3321,-4.332,0,-4.3303,-4.3277,-4.335,-4.334,-4.3339,-4.3394,-4.3385,-4.3425,-4.3408,-4.346,-4.347,-4.3443,-4.3482,-4.3452,-4.349,-4.3472,-4.356,-4.354,-4.3558,-4.3551,-4.3619,-4.3612,-4.3854,-4.3882,-4.3663,-4.3665,-4.3667,0,-4.3413,-4.3464,-4.346,-4.3483,-4.3486,-4.3524,-4.3543,-4.3505,-4.3527,-4.3538,-4.3576,-4.361,-4.3634,-4.3698,-4.3682,-4.371,-4.3688,-4.3771,-4.3691,-4.37,-4.3685,-4.368,-4.3684,-4.3786,-4.3788,-4.379,-4.3792,0,-4.3609,-4.3594,-4.3624,-4.3649,-4.3674,-4.3692,-4.3706,-4.3728,-4.3688,-4.3716,-4.3754,-4.3774,-4.3812,-4.3845,-4.3868,-4.3867,-4.3822,-4.3818,-4.3834,-4.3844,-4.385,-4.3844,-4.3597,-4.3811,-4.3809,-4.3808,-4.3807,-4.3806,-4.3755,-4.3796,-4.3799,-4.3834,-4.384,-4.3855,-4.389,-4.3879,-4.391,-4.3937,-4.3914,-4.3959,-4.3964,-4.399,-4.3995,-4.4029,-4.3994,-4.402,-4.4025,-4.4031,-4.4039,-4.3849,-4.4034,-4.4033,-4.4032,-4.4032,-4.4032,0,-4.3944,-4.3943,-4.3976,-4.3997,-4.4025,-4.3982,-4.3995,-4.4021,-4.4061,-4.407,-4.4095,-4.4139,-4.4171,-4.4158,-4.4186,-4.4216,-4.4196,-4.4224,-4.4219,-4.4219,-4.407,-4.4051,-4.424,-4.424,-4.424,-4.424,-4.424,-4.424,-4.4046,-4.4112,-4.4098,-4.4167,-4.4165,-4.4209,-4.422,-4.4232,-4.4238,-4.4289,-4.4316,-4.4308,-4.4307,-4.4335,-4.4362,-4.4358,-4.4369,-4.4404,-4.4392,-4.4251,-4.423,-4.4211,-4.4192,-4.4408,-4.4408,-4.4537,-4.4539,-4.454]},{"header":{"parameterUnit":"m.s-1","parameterCategory":1,"la1":30.2991,"la2":30.254,"lo1":-89.0895,"lo2":-89.0444,"dy":0.0017,"dx":0.0017,"nx":28,"ny":28,"refTime":"2024-12-08T09:00:00:Z","depth":0,"parameterNumber":3,"parameterNumberName":"V-component_of_WINDS"},"data":[0,0,0,0,0,0,0,0,0,0,0,0,0,0,0,0,0,0,0,0,0,0,0,0,0,0,0,0,0,0,0,0,0,0,0,0,0,0,0,0,0,0,0,0,0,0,0,0,0,0,0,0,0,0,0,0,0,0,1.1106,1.1107,0,1.1176,1.1176,1.1177,1.1184,1.1184,1.1183,1.1182,1.125,1.1252,1.1255,0,0,0,0,0,0,0,0,0,0,0,0,0,1.0978,1.098,1.1106,1.1107,1.1108,1.1175,1.1176,1.1177,1.1185,1.1184,1.1183,1.1182,1.1249,1.1252,1.1255,0,0,0,0,0,0,0,0,0,0,0,0,0,1.1039,1.0981,1.1106,1.112,1.1122,1.1175,1.1176,1.1178,1.1185,1.1184,1.1183,1.1182,1.1248,1.1252,1.1256,1.1299,0,0,1.1267,1.1268,0,0,0,0,0,0,0,0,1.1036,1.1044,1.1117,1.1119,1.1121,1.117,1.1156,1.1218,1.1185,1.1161,1.1182,1.1181,1.1224,1.123,1.1245,1.1302,1.1305,1.1267,1.1269,1.1271,1.1272,0,0,0,0,0,0,0,1.1031,1.1041,1.1133,1.1118,1.1121,1.1122,1.1129,1.1168,1.1197,1.1163,1.1163,1.1172,1.1225,1.1241,1.1247,1.1306,1.1267,1.127,1.1273,1.1274,1.1405,1.1406,0,0,0,0,0,0,1.1025,1.1037,1.1131,1.1136,1.1075,1.1125,1.1133,1.1156,1.1197,1.1202,1.1173,1.1172,1.1236,1.1242,1.1249,1.1305,1.1271,1.1274,1.1276,1.1404,1.1405,1.1407,0,0,0,0,0,0,1.1022,1.1033,1.1128,1.1087,1.1099,1.1128,1.1153,1.1157,1.1174,1.1204,1.1209,1.1184,1.1235,1.1244,1.1287,1.1307,1.1276,1.1279,1.1402,1.1404,1.1406,1.1416,0,0,0,0,0,0,1.1018,1.1032,1.1049,1.1087,1.1101,1.1166,1.1154,1.116,1.1181,1.118,1.1217,1.1221,1.1235,1.1282,1.1291,1.1312,1.1282,1.1401,1.1403,1.1406,1.1414,1.1418,1.1422,0,0,0,0,0,1.1014,1.1048,1.105,1.1062,1.1124,1.1168,1.1176,1.1191,1.1182,1.12,1.122,1.122,1.1303,1.1286,1.1297,1.1319,1.14,1.1403,1.1405,1.1412,1.1417,1.1421,0,0,0,0,0,0,1.1011,1.1053,1.1056,1.1104,1.1132,1.1169,1.1191,1.1196,1.1226,1.1225,1.1242,1.125,1.1293,1.131,1.129,1.1364,1.1351,1.1356,1.1352,1.1357,1.1361,1.1357,1.1285,0,0,0,0,0,1.1016,1.1049,1.1084,1.1122,1.1137,1.1162,1.1181,1.1191,1.1221,1.1233,1.1255,1.1283,1.1316,1.1337,1.1369,1.1416,1.1425,1.1436,1.144,1.1443,1.1448,1.1476,1.1483,1.1416,1.1416,1.1416,0,0,1.1026,1.1053,1.1073,1.1122,1.1146,1.118,1.1172,1.1207,1.1232,1.1237,1.1281,1.1299,1.1331,1.1378,1.1399,1.1393,1.1468,1.1447,1.1449,1.1452,1.148,1.1486,1.1492,1.1418,1.1418,1.1418,0,0,1.1063,1.1086,1.1122,1.1146,1.1182,1.1199,1.1207,1.1244,1.1257,1.1301,1.1306,1.1336,1.1391,1.1415,1.1434,1.1481,1.1484,1.1491,1.1511,1.1538,1.1544,1.1548,1.1568,1.1574,1.1495,1.1495,1.1495,0,1.1071,1.1123,1.114,1.1177,1.1199,1.1206,1.1243,1.1265,1.1309,1.1324,1.1316,1.1388,1.141,1.1463,1.1475,1.1489,1.1501,1.1488,1.1542,1.1547,1.1551,1.157,1.1577,1.1496,1.1496,1.1496,1.1496,0,1.1133,1.1169,1.1193,1.1238,1.1262,1.1299,1.1321,1.1344,1.1352,1.1369,1.1415,1.1442,1.148,1.1493,1.15,1.1548,1.1543,1.1538,1.1525,1.1558,1.1576,1.1583,1.1497,1.1497,1.1496,1.1496,0,0,1.117,1.1224,1.1233,1.1255,1.1295,1.1323,1.136,1.1399,1.1419,1.1449,1.1481,1.1528,1.1525,1.1547,1.1557,1.1581,1.162,1.1573,1.1574,1.1583,1.1677,1.1682,1.169,1.1621,1.1622,1.1623,1.1675,0,1.1213,1.1281,1.1298,1.1355,1.139,1.1398,1.143,1.1459,1.1476,1.1507,1.1525,1.156,1.1552,1.1565,1.1589,1.161,1.1639,1.1606,1.1652,1.1653,1.1646,1.1699,1.1704,1.1751,1.1682,1.1683,1.1684,0,1.1273,1.1307,1.1368,1.1407,1.1422,1.1451,1.1489,1.1519,1.1551,1.1562,1.1587,1.1595,1.1634,1.1618,1.1672,1.1649,1.1669,1.1682,1.1684,1.1691,1.1672,1.1709,1.1767,1.1775,1.1694,1.1693,1.1693,0,1.1297,1.1357,1.1403,1.142,1.1466,1.1486,1.1506,1.1537,1.156,1.1593,1.1609,1.1644,1.1665,1.1692,1.171,1.1696,1.1764,1.1748,1.1775,1.1775,1.179,1.179,1.1854,1.1799,1.1799,1.1799,1.1798,0,1.1345,1.1383,1.1415,1.1443,1.1486,1.1505,1.1547,1.1566,1.1595,1.1627,1.1634,1.1664,1.1684,1.1717,1.173,1.1775,1.1783,1.1794,1.1797,1.1795,1.1794,1.1809,1.1807,1.18,1.18,1.18,1.1799,0,1.138,1.1402,1.1453,1.1493,1.1503,1.1534,1.1567,1.1595,1.1613,1.1653,1.1664,1.1691,1.173,1.175,1.1798,1.1807,1.1858,1.1858,1.1848,1.185,1.1877,1.1875,1.1956,1.1968,1.1902,1.1902,1.1903,0,1.141,1.144,1.1484,1.1507,1.1528,1.1564,1.1588,1.1607,1.1632,1.1673,1.1696,1.1735,1.1769,1.183,1.1854,1.1891,1.1894,1.192,1.19,1.1897,1.1898,1.1897,1.1901,1.1924,1.1925,1.1925,1.1925,0,1.1463,1.1473,1.1509,1.1549,1.1578,1.161,1.1641,1.1659,1.1683,1.1711,1.1752,1.1778,1.1828,1.1868,1.1907,1.1927,1.1931,1.1931,1.194,1.1939,1.1933,1.1939,1.186,1.193,1.193,1.1929,1.1929,1.1929,1.1498,1.1526,1.1562,1.1602,1.1628,1.1658,1.1687,1.1709,1.1744,1.1788,1.1796,1.184,1.1873,1.1927,1.1947,1.1982,1.1976,1.1988,1.1992,1.1995,1.1998,1.1926,1.1988,1.1988,1.1988,1.1988,1.1988,0,1.1554,1.1578,1.1614,1.1659,1.1691,1.1692,1.1727,1.1754,1.1793,1.1824,1.1857,1.1905,1.1944,1.1971,1.2011,1.2034,1.2037,1.2044,1.2044,1.2049,1.1999,1.1989,1.2041,1.2041,1.2041,1.2041,1.2041,1.2041,1.1586,1.1635,1.165,1.1711,1.1735,1.1779,1.18,1.1827,1.1853,1.1907,1.194,1.1958,1.1988,1.203,1.2066,1.2073,1.2088,1.2096,1.2103,1.2057,1.2052,1.2046,1.2037,1.2098,1.2099,1.215,1.2151,1.2151]}]]